INTELSAT 18 (IS-18)

Last updated on Thu Nov 21 2024 00:02:41 GMT+0000 (Coordinated Universal Time)

1 37834U 11056A 24325.24166830 .00000055 00000+0 00000+0 0 9992 2 37834 0.0146 296.1977 0002215 304.3520 86.2287 1.00274071 48058
UTC large
Height (km)
Speed (km/s)
/
Latitude / Longitude
Inclination (degrees)
Orbital Period (minutes)
Azimuth
Elevation
Range (km)
Doppler Factor

Next 0 passes for location: London (51.5072 / 0.1276)

Sorry there are no passes over London.